Time,TemperatureF,DewpointF,PressureIn,WindDirection,WindDirectionDegrees,WindSpeedMPH,WindSpeedGustMPH,Humidity,HourlyPrecipIn,Conditions,Clouds,dailyrainin,SolarRadiationWatts/m^2,SoftwareType,DateUTC
2013-09-01 00:02:00,54.0,54.0,-100.00,South,180,3.0,4.0,99,0.00,,,0.18,0.000000,,2013-09-01 07:02:00,
2013-09-01 00:12:00,54.0,54.0,-100.00,South,180,3.0,4.0,99,0.00,,,0.18,0.000000,,2013-09-01 07:12:00,
2013-09-01 00:42:00,53.0,53.0,-100.00,South,177,1.0,2.0,99,0.00,,,0.18,0.000000,,2013-09-01 07:42:00,
2013-09-01 00:52:00,53.0,53.0,-100.00,South,177,1.0,2.0,99,0.00,,,0.18,0.000000,,2013-09-01 07:52:00,
2013-09-01 01:02:00,53.0,53.0,-100.00,South,177,1.0,2.0,99,0.00,,,0.18,0.000000,,2013-09-01 08:02:00,
2013-09-01 01:11:00,53.0,53.0,-100.00,South,177,1.0,2.0,99,0.00,,,0.18,0.000000,,2013-09-01 08:11:00,
2013-09-01 01:43:00,53.0,53.0,-100.00,North,10,0.0,3.0,99,0.00,,,0.18,0.000000,,2013-09-01 08:43:00,
2013-09-01 01:52:00,53.0,53.0,-100.00,North,10,0.0,3.0,99,0.00,,,0.18,0.000000,,2013-09-01 08:52:00,
2013-09-01 02:02:00,53.0,53.0,-100.00,North,10,0.0,3.0,99,0.00,,,0.18,0.000000,,2013-09-01 09:02:00,
2013-09-01 02:11:00,53.0,53.0,-100.00,North,10,0.0,3.0,99,0.00,,,0.18,0.000000,,2013-09-01 09:11:00,
2013-09-01 02:43:00,51.0,51.0,-100.00,SSE,158,1.0,2.0,100,0.00,,,0.17,0.000000,,2013-09-01 09:43:00,
2013-09-01 02:53:00,51.0,51.0,-100.00,SSE,158,1.0,2.0,100,0.00,,,0.17,0.000000,,2013-09-01 09:53:00,
2013-09-01 03:03:00,51.0,51.0,-100.00,SSE,158,1.0,2.0,100,0.00,,,0.17,0.000000,,2013-09-01 10:03:00,
2013-09-01 03:12:00,51.0,51.0,-100.00,SSE,158,1.0,2.0,100,0.00,,,0.17,0.000000,,2013-09-01 10:12:00,
2013-09-01 03:42:00,50.0,50.0,-100.00,SSW,202,3.0,4.0,100,0.00,,,0.17,0.000000,,2013-09-01 10:42:00,
2013-09-01 03:53:00,50.0,50.0,-100.00,SSW,202,3.0,4.0,100,0.00,,,0.17,0.000000,,2013-09-01 10:53:00,
2013-09-01 04:02:00,50.0,50.0,-100.00,SSW,202,3.0,4.0,100,0.00,,,0.17,0.000000,,2013-09-01 11:02:00,
2013-09-01 04:12:00,50.0,50.0,-100.00,SSW,202,3.0,4.0,100,0.00,,,0.17,0.000000,,2013-09-01 11:12:00,
2013-09-01 04:42:00,50.0,50.0,-100.00,South,169,0.0,4.0,100,0.00,,,0.17,0.000000,,2013-09-01 11:42:00,
2013-09-01 04:52:00,50.0,50.0,-100.00,South,169,0.0,4.0,100,0.00,,,0.17,0.000000,,2013-09-01 11:52:00,
2013-09-01 05:01:00,50.0,50.0,-100.00,South,169,0.0,4.0,100,0.00,,,0.17,0.000000,,2013-09-01 12:01:00,
2013-09-01 05:12:00,50.0,50.0,-100.00,South,169,0.0,4.0,100,0.00,,,0.17,0.000000,,2013-09-01 12:12:00,
2013-09-01 05:42:00,49.0,49.0,-100.00,SSW,210,2.0,3.0,100,0.00,,,0.17,0.000000,,2013-09-01 12:42:00,
2013-09-01 05:52:00,49.0,49.0,-100.00,SSW,210,2.0,3.0,100,0.00,,,0.17,0.000000,,2013-09-01 12:52:00,
2013-09-01 06:01:00,49.0,49.0,-100.00,SSW,210,2.0,3.0,100,0.00,,,0.17,0.000000,,2013-09-01 13:01:00,
2013-09-01 06:11:00,49.0,49.0,-100.00,SSW,210,2.0,3.0,100,0.00,,,0.17,0.000000,,2013-09-01 13:11:00,
2013-09-01 06:42:00,49.0,49.0,-100.00,ENE,58,0.0,3.0,100,0.00,,,0.17,3.000000,,2013-09-01 13:42:00,
2013-09-01 06:52:00,49.0,49.0,-100.00,ENE,58,0.0,3.0,100,0.00,,,0.17,3.000000,,2013-09-01 13:52:00,
2013-09-01 07:02:00,49.0,49.0,-100.00,ENE,58,0.0,3.0,100,0.00,,,0.17,3.000000,,2013-09-01 14:02:00,
2013-09-01 07:11:00,49.0,49.0,-100.00,ENE,58,0.0,3.0,100,0.00,,,0.17,3.000000,,2013-09-01 14:11:00,
2013-09-01 07:42:00,53.0,53.0,-100.00,NE,40,1.0,3.0,99,-99.99,,,0.17,53.000000,,2013-09-01 14:42:00,
2013-09-01 07:52:00,53.0,53.0,-100.00,NE,40,1.0,3.0,99,-99.99,,,0.17,53.000000,,2013-09-01 14:52:00,
2013-09-01 08:02:00,53.0,53.0,-100.00,NE,40,1.0,3.0,99,-99.99,,,0.17,53.000000,,2013-09-01 15:02:00,
2013-09-01 08:11:00,53.0,53.0,-100.00,NE,40,1.0,3.0,99,-99.99,,,0.17,53.000000,,2013-09-01 15:11:00,
2013-09-01 08:45:00,65.0,60.0,-100.00,East,94,2.0,4.0,85,0.00,,,0.17,320.000000,,2013-09-01 15:45:00,
2013-09-01 08:55:00,65.0,60.0,-100.00,East,94,2.0,4.0,85,0.00,,,0.17,320.000000,,2013-09-01 15:55:00,
2013-09-01 09:05:00,65.0,60.0,-100.00,East,94,2.0,4.0,85,0.00,,,0.17,320.000000,,2013-09-01 16:05:00,
2013-09-01 09:14:00,65.0,60.0,-100.00,East,94,2.0,4.0,85,0.00,,,0.17,320.000000,,2013-09-01 16:14:00,
2013-09-01 09:43:00,69.0,60.0,-100.00,ENE,76,3.0,7.0,74,0.00,,,0.17,543.000000,,2013-09-01 16:43:00,
2013-09-01 09:53:00,69.0,60.0,-100.00,ENE,76,3.0,7.0,74,0.00,,,0.17,543.000000,,2013-09-01 16:53:00,
2013-09-01 10:03:00,69.0,60.0,-100.00,ENE,76,3.0,7.0,74,0.00,,,0.17,543.000000,,2013-09-01 17:03:00,
2013-09-01 10:12:00,69.0,60.0,-100.00,ENE,76,3.0,7.0,74,0.00,,,0.17,543.000000,,2013-09-01 17:12:00,
2013-09-01 10:42:00,68.0,59.0,-100.00,West,277,3.0,8.0,74,0.00,,,0.17,474.000000,,2013-09-01 17:42:00,
2013-09-01 10:52:00,68.0,59.0,-100.00,West,277,3.0,8.0,74,0.00,,,0.17,474.000000,,2013-09-01 17:52:00,
2013-09-01 11:02:00,68.0,59.0,-100.00,West,277,3.0,8.0,74,0.00,,,0.17,474.000000,,2013-09-01 18:02:00,
2013-09-01 11:12:00,68.0,59.0,-100.00,West,277,3.0,8.0,74,0.00,,,0.17,474.000000,,2013-09-01 18:12:00,
2013-09-01 11:42:00,70.0,61.0,-100.00,SSW,201,2.0,6.0,72,0.00,,,0.17,337.000000,,2013-09-01 18:42:00,
2013-09-01 11:52:00,70.0,61.0,-100.00,SSW,201,2.0,6.0,72,0.00,,,0.17,337.000000,,2013-09-01 18:52:00,
2013-09-01 12:02:00,70.0,61.0,-100.00,SSW,201,2.0,6.0,72,0.00,,,0.17,337.000000,,2013-09-01 19:02:00,
2013-09-01 12:12:00,70.0,61.0,-100.00,SSW,201,2.0,6.0,72,0.00,,,0.17,337.000000,,2013-09-01 19:12:00,
2013-09-01 12:42:00,72.0,57.0,-100.00,WNW,292,4.0,17.0,59,0.00,,,0.14,668.000000,,2013-09-01 19:42:00,
2013-09-01 12:52:00,72.0,57.0,-100.00,WNW,292,4.0,17.0,59,0.00,,,0.14,668.000000,,2013-09-01 19:52:00,
2013-09-01 13:02:00,72.0,57.0,-100.00,WNW,292,4.0,17.0,59,0.00,,,0.14,668.000000,,2013-09-01 20:02:00,
2013-09-01 13:12:00,72.0,57.0,-100.00,WNW,292,4.0,17.0,59,0.00,,,0.14,668.000000,,2013-09-01 20:12:00,
2013-09-01 13:42:00,75.0,57.0,-100.00,South,187,4.0,13.0,53,0.00,,,0.10,867.000000,,2013-09-01 20:42:00,
2013-09-01 13:52:00,75.0,57.0,-100.00,South,187,4.0,13.0,53,0.00,,,0.10,867.000000,,2013-09-01 20:52:00,
2013-09-01 14:02:00,75.0,57.0,-100.00,South,187,4.0,13.0,53,0.00,,,0.10,867.000000,,2013-09-01 21:02:00,
2013-09-01 14:11:00,75.0,57.0,-100.00,South,187,4.0,13.0,53,0.00,,,0.10,867.000000,,2013-09-01 21:11:00,
2013-09-01 14:44:00,77.0,57.0,-100.00,SW,220,8.0,12.0,50,0.00,,,0.02,575.000000,,2013-09-01 21:44:00,
2013-09-01 14:55:00,77.0,57.0,-100.00,SW,220,8.0,12.0,50,0.00,,,0.02,575.000000,,2013-09-01 21:55:00,
2013-09-01 15:04:00,77.0,57.0,-100.00,SW,220,8.0,12.0,50,0.00,,,0.02,575.000000,,2013-09-01 22:04:00,
2013-09-01 15:14:00,77.0,57.0,-100.00,SW,220,8.0,12.0,50,0.00,,,0.02,575.000000,,2013-09-01 22:14:00,
2013-09-01 15:43:00,75.0,53.0,-100.00,SW,218,10.0,16.0,47,0.00,,,0.00,654.000000,,2013-09-01 22:43:00,
2013-09-01 15:53:00,75.0,53.0,-100.00,SW,218,10.0,16.0,47,0.00,,,0.00,654.000000,,2013-09-01 22:53:00,
2013-09-01 16:03:00,75.0,53.0,-100.00,SW,218,10.0,16.0,47,0.00,,,0.00,654.000000,,2013-09-01 23:03:00,
2013-09-01 16:12:00,75.0,53.0,-100.00,SW,218,10.0,16.0,47,0.00,,,0.00,654.000000,,2013-09-01 23:12:00,
2013-09-01 16:42:00,72.0,58.0,-100.00,West,271,13.0,19.0,61,0.00,,,0.00,526.000000,,2013-09-01 23:42:00,
2013-09-01 16:53:00,72.0,58.0,-100.00,West,271,13.0,19.0,61,0.00,,,0.00,526.000000,,2013-09-01 23:53:00,
2013-09-01 17:02:00,72.0,58.0,-100.00,West,271,13.0,19.0,61,0.00,,,0.00,526.000000,,2013-09-02 00:02:00,
2013-09-01 17:11:00,72.0,58.0,-100.00,West,271,13.0,19.0,61,0.00,,,0.00,526.000000,,2013-09-02 00:11:00,
2013-09-01 17:42:00,66.0,55.0,-100.00,West,274,9.0,18.0,68,0.00,,,0.00,246.000000,,2013-09-02 00:42:00,
2013-09-01 17:52:00,66.0,55.0,-100.00,West,274,9.0,18.0,68,0.00,,,0.00,246.000000,,2013-09-02 00:52:00,
2013-09-01 18:02:00,66.0,55.0,-100.00,West,274,9.0,18.0,68,0.00,,,0.00,246.000000,,2013-09-02 01:02:00,
2013-09-01 18:12:00,66.0,55.0,-100.00,West,274,9.0,18.0,68,0.00,,,0.00,246.000000,,2013-09-02 01:12:00,
2013-09-01 18:42:00,64.0,55.0,-100.00,North,4,4.0,12.0,73,0.00,,,0.00,38.000000,,2013-09-02 01:42:00,
2013-09-01 18:52:00,64.0,55.0,-100.00,North,4,4.0,12.0,73,0.00,,,0.00,38.000000,,2013-09-02 01:52:00,
2013-09-01 19:02:00,64.0,55.0,-100.00,North,4,4.0,12.0,73,0.00,,,0.00,38.000000,,2013-09-02 02:02:00,
2013-09-01 19:12:00,64.0,55.0,-100.00,North,4,4.0,12.0,73,0.00,,,0.00,38.000000,,2013-09-02 02:12:00,
2013-09-01 19:42:00,59.0,56.0,-100.00,North,10,2.0,4.0,91,0.00,,,0.00,9.000000,,2013-09-02 02:42:00,
2013-09-01 19:52:00,59.0,56.0,-100.00,North,10,2.0,4.0,91,0.00,,,0.00,9.000000,,2013-09-02 02:52:00,
2013-09-01 20:02:00,59.0,56.0,-100.00,North,10,2.0,4.0,91,0.00,,,0.00,9.000000,,2013-09-02 03:02:00,
2013-09-01 20:11:00,59.0,56.0,-100.00,North,10,2.0,4.0,91,0.00,,,0.00,9.000000,,2013-09-02 03:11:00,
2013-09-01 20:44:00,57.0,56.0,-100.00,NNW,332,1.0,4.0,96,0.00,,,0.00,0.000000,,2013-09-02 03:44:00,
2013-09-01 20:56:00,57.0,56.0,-100.00,NNW,332,1.0,4.0,96,0.00,,,0.00,0.000000,,2013-09-02 03:56:00,
2013-09-01 21:04:00,57.0,56.0,-100.00,NNW,332,1.0,4.0,96,0.00,,,0.00,0.000000,,2013-09-02 04:04:00,
2013-09-01 21:14:00,57.0,56.0,-100.00,NNW,332,1.0,4.0,96,0.00,,,0.00,0.000000,,2013-09-02 04:14:00,
2013-09-01 21:44:00,55.0,54.0,-100.00,SSW,199,2.0,3.0,97,0.00,,,0.00,0.000000,,2013-09-02 04:44:00,
2013-09-01 21:54:00,55.0,54.0,-100.00,SSW,199,2.0,3.0,97,0.00,,,0.00,0.000000,,2013-09-02 04:54:00,
2013-09-01 22:03:00,55.0,54.0,-100.00,SSW,199,2.0,3.0,97,0.00,,,0.00,0.000000,,2013-09-02 05:03:00,
2013-09-01 22:12:00,55.0,54.0,-100.00,SSW,199,2.0,3.0,97,0.00,,,0.00,0.000000,,2013-09-02 05:12:00,
2013-09-01 22:44:00,54.0,53.0,-100.00,SSW,206,2.0,4.0,98,0.00,,,0.00,0.000000,,2013-09-02 05:44:00,
2013-09-01 22:52:00,54.0,53.0,-100.00,SSW,206,2.0,4.0,98,0.00,,,0.00,0.000000,,2013-09-02 05:52:00,
2013-09-01 23:03:00,54.0,53.0,-100.00,SSW,206,2.0,4.0,98,0.00,,,0.00,0.000000,,2013-09-02 06:03:00,
2013-09-01 23:12:00,54.0,53.0,-100.00,SSW,206,2.0,4.0,98,0.00,,,0.00,0.000000,,2013-09-02 06:12:00,
2013-09-01 23:43:00,52.0,52.0,-100.00,ESE,123,0.0,3.0,99,0.00,,,0.00,0.000000,,2013-09-02 06:43:00,
2013-09-01 23:52:00,52.0,52.0,-100.00,ESE,123,0.0,3.0,99,0.00,,,0.00,0.000000,,2013-09-02 06:52:00,